Regional Weather Roundup
Issued by NWS Bismarck, ND

Home | Current Version | Previous Version | Text Only | Print | Product List | Glossary On
Versions: 1 2 3 4 5 6 7 8 9 10 11 12 13 14 15 16 17 18 19 20 21 22 23 24 25 26 27 28 29 30 31 32 33 34 35 36 37 38 39 40 41 42 43 44 45 46 47 48 49 50
000
ASUS43 KBIS 242310
RWRBIS

NWR BROADCAST TEXT
NATIONAL WEATHER SERVICE BISMARCK ND
500 PM CST MON NOV 24 2014

NOTE: "FAIR" INDICATES FEW OR NO CLOUDS BELOW 12,000 FEET WITH NO
SIGNIFICANT WEATHER AND/OR OBSTRUCTIONS TO VISIBILITY.


CITY           SKY/WX    TMP DP  RH WIND       PRES   REMARKS
WILLISTON      CLOUDY    26  19  74 SW5       29.99R
MINOT          PTCLDY    22  12  65 W7        29.95R WCI  13
MINOT AFB      MOCLDY    18  12  77 W9        29.95S WCI   7
BISMARCK       CLEAR     25   6  44 NW12      30.00R WCI  14
DICKINSON      MOCLDY    24  17  74 W16       29.95S WCI  11
GARRISON         N/A     21  13  71 NW9       29.97R WCI  11
HETTINGER ARPT PTCLDY    24  18  77 NW7       30.00R WCI  16
JAMESTOWN      CLEAR     17   0  47 NW13G21   29.94R WCI   4
BEACH          FAIR      27  25  93 W10       30.00S WCI  17
CARRINGTON     FAIR      16   1  53 NW14      29.96R WCI   1
CROSBY         CLOUDY    27  19  74 SW10      29.95S WCI  17
HARVEY         FAIR      14   3  62 W7        29.96S WCI   4
HAZEN          FAIR      23  12  63 W9        30.00R WCI  13
LINTON         FAIR      21   7  53 NW9       29.99R WCI  11
MANDAN         FAIR      21   7  53 W10       29.99R WCI  10
OAKES            N/A     19   5  53 NW22      29.93R WCI   3
RUGBY          FAIR      14   3  62 NW8       29.95S WCI   3
STANLEY        CLOUDY    23  18  80 W10       29.94S WCI  12
TIOGA          MIX PCPN  23  21  93 W12       29.97S WCI  12
$$

CITY           SKY/WX    TMP DP  RH WIND       PRES   REMARKS
GRAND FORKS    CLEAR     15   7  70 N14       29.93R WCI   0
GRAND FORKS AF CLEAR     16   6  66 N13       29.94R WCI   2
DEVILS LAKE    CLEAR     16  -2  45 NW7       29.92R WCI   6
FARGO          CLEAR     18  10  71 N21       29.91R WCI   1
CANDO          FAIR      14   0  52 NW7       29.94S WCI   4
CAVALIER       FAIR      12   0  57 N9        29.96R WCI   0
GRAFTON        FAIR      14   3  62 N14       29.95R WCI  -1
GWINNER        CLEAR     21  10  63 NW14G21   29.94R WCI   8
LANGDON        FAIR      10   3  72 NW10      29.90S WCI  -3
ROLLA          FAIR      14  -4  44 W7        29.92R WCI   4
WALHALLA         N/A     12   0  57 N7        29.95S WCI   2
$$

CITY           SKY/WX    TMP DP  RH WIND       PRES   REMARKS
ABERDEEN       CLEAR     23   4  44 NW18      29.96R WCI   9
MOBRIDGE       CLEAR     25   9  50 NW12      29.98R WCI  14
BUFFALO          N/A     32  23  69 NW18      29.94R
RAPID CITY     CLOUDY    33  25  72 NW24G32   30.02R
GLASGOW        PTCLDY    33  26  75 W8        30.02R
SIDNEY         PTCLDY    30  25  80 SW12      30.02R
WOLF POINT     MOCLDY    36  26  67 W10       30.03R
GLENDIVE       CLOUDY    34  27  75 W12       30.03R
MILES CITY     MOCLDY    34  28  79 NW8       30.07R
BAKER          PTCLDY    30  24  78 W10       30.02R
$$

CITY           SKY/WX    TMP DP  RH WIND       PRES   REMARKS
BILLINGS       PTCLDY    41  14  33 W18G26    30.12R
GREAT FALLS    CLOUDY    38  19  46 SW14      30.09R
REGINA         CLOUDY    27  23  86 NW18G28   29.93R WCI  13
ESTEVAN        LGT SNOW  25  19  80 SW6       29.93  WCI  18
$$




USA.gov is the U.S. government's official web portal to all federal, state and local government web resources and services.